sat.trackr.live / text

‹ back to catalog

STARLINK-5584

NORAD 55769 · 2023-028AE

PAYLOAD ACTIVE UNKNOWN

§ Identity

Operator
Country
US
Launch date
2023-03-03
Launch site
AFWTR
Launch vehicle
Mass (kg)
RCS (m²)

Purposes: comms

External: N2YO · Heavens-Above · Gunter

§ Orbital elements

Epoch: 2026-05-25T01:49:37.194816Z

Period
96.11 min
Inclination
70.0003°
Eccentricity
0.0002696
Mean motion
14.98331920 rev/d
Perigee alt
570.2 km
Apogee alt
573.9 km
Semi-major
6,950.2 km
B*
6.6886e-6
RAAN
31.9190°
Arg perigee
269.7516°
Mean anomaly
90.3335°
Rev number
17,797

§ Raw data

STARLINK-55841 55769U 23028AE  26145.07612494 -.00000013  00000+0  66886-5 0  99912 55769  70.0003  31.9190 0002696 269.7516  90.3335 14.98331920177970

JSON: /api/v1/satellites/55769 · /tle

For live sub-satellite position, see the globe view (requires WebGL).

§ Visibility from observer

Set your observer location to see the next 7 days of passes ≥ 10°. The values pass through the URL so the page stays shareable.

No JS? Fill the form by hand. The geolocation button needs JavaScript.